EW4849 Weather Reports


Display with metric or nautical units.
time (UTC)temp
F
wind
direction
speed
MPH
gust
MPH
rain 1hr
in
rain 24hr
in
rain mn
in
humidity
%
barometer
mb
20260507143033 51 188 9.0 14.0 0.00 0.00 0.00 81 1007.7
20260507141517 51 169 10.0 15.0 0.00 0.00 0.00 80 1007.6
20260507140024 51 196 11.0 18.0 0.00 0.00 0.00 81 1007.3
20260507134513 51 181 10.0 15.0 0.00 0.00 0.00 81 1007.3
20260507133012 51 186 6.0 9.0 0.00 0.00 0.00 81 1007.3
20260507131511 51 178 7.0 15.0 0.00 0.00 0.00 80 1007.1
20260507130008 51 193 9.0 13.0 0.00 0.00 0.00 81 1007.0
20260507124512 50 162 9.0 12.0 0.00 0.00 0.00 83 1007.0
20260507123004 51 181 7.0 12.0 0.00 0.00 0.00 83 1007.1
20260507121504 50 197 8.0 11.0 0.00 0.00 0.00 86 1007.0
20260507120048 50 148 1.0 3.0 0.00 0.00 0.00 85 1007.2
20260507114546 51 225 1.0 5.0 0.00 0.00 0.00 84 1007.2
20260507113045 50 252 0.0 8.0 0.00 0.00 0.00 84 1007.2
20260507111547 50 235 4.0 9.0 0.00 0.00 0.00 85 1007.1
20260507110046 51 213 4.0 8.0 0.00 0.00 0.00 82 1007.1
20260507104540 51 159 1.0 4.0 0.00 0.00 0.00 82 1007.2
20260507103037 52 219 4.0 9.0 0.00 0.00 0.00 81 1007.2
20260507101555 52 175 3.0 8.0 0.00 0.00 0.00 81 1007.1
20260507100027 53 217 4.0 8.0 0.00 0.00 0.00 80 1007.2
20260507094514 53 221 5.0 13.0 0.00 0.00 0.00 78 1007.0
20260507093054 53 229 8.0 13.0 0.00 0.00 0.00 78 1006.9
20260507091602 53 229 8.0 13.0 0.00 0.00 0.00 78 1006.9
20260507090055 54 214 5.0 9.0 0.00 0.00 0.00 76 1007.1
20260507084536 54 207 5.0 11.0 0.00 0.00 0.00 74 1007.0
20260507083034 54 181 6.0 10.0 0.00 0.00 0.00 72 1006.9
20260507081548 54 212 6.0 10.0 0.00 0.00 0.00 73 1006.7
20260507080029 54 221 6.0 11.0 0.00 0.00 0.00 72 1006.7
20260507074530 54 259 5.0 11.0 0.00 0.00 0.00 71 1006.5
20260507073026 55 229 7.0 12.0 0.00 0.00 0.00 70 1006.4
20260507071525 55 221 6.0 12.0 0.00 0.00 0.00 68 1006.4
20260507070013 55 218 6.0 9.0 0.00 0.00 0.00 67 1006.4
20260507064514 56 201 4.0 8.0 0.00 0.00 0.00 67 1006.5
20260507063010 56 207 4.0 9.0 0.00 0.00 0.00 66 1006.4
20260507061526 56 225 4.0 6.0 0.00 0.00 0.00 65 1006.3
20260507060010 57 167 3.0 9.0 0.00 0.00 0.00 65 1006.2
20260507054509 57 215 6.0 9.0 0.00 0.00 0.00 64 1006.1
20260507053011 57 204 5.0 8.0 0.00 0.00 0.00 64 1006.1
20260507051508 57 234 4.0 8.0 0.00 0.00 0.00 63 1006.1
20260507050050 58 248 4.0 8.0 0.00 0.00 0.00 62 1006.2
20260507044550 59 215 6.0 11.0 0.00 0.00 0.00 59 1006.0
20260507043040 60 229 6.0 10.0 0.00 0.00 0.00 58 1005.9
20260507041537 61 210 6.0 14.0 0.00 0.00 0.00 57 1005.8
20260507040035 62 234 9.0 15.0 0.00 0.00 0.00 54 1005.6
20260507034536 63 244 10.0 18.0 0.00 0.00 0.00 53 1005.1
20260507033035 64 206 12.0 17.0 0.00 0.00 0.00 53 1004.9
20260507031533 65 215 10.0 16.0 0.00 0.00 0.00 53 1004.7
20260507030037 66 210 9.0 19.0 0.00 0.00 0.00 53 1004.6
20260507024534 67 217 12.0 18.0 0.00 0.00 0.00 50 1004.3
20260507023021 68 207 12.0 20.0 0.00 0.00 0.00 48 1004.3
20260507021520 68 214 13.0 20.0 0.00 0.00 0.00 47 1004.2
20260507020019 69 174 10.0 19.0 0.00 0.00 0.00 47 1004.1
20260507014519 70 203 11.0 17.0 0.00 0.00 0.00 47 1004.0
20260507013018 70 207 12.0 19.0 0.00 0.00 0.00 47 1003.9
20260507011523 71 226 13.0 18.0 0.00 0.00 0.00 46 1003.9
20260507010017 71 212 10.0 18.0 0.00 0.00 0.00 47 1003.9
20260507004517 72 188 11.0 19.0 0.00 0.00 0.00 45 1003.8
20260507003058 73 223 10.0 16.0 0.00 0.00 0.00 47 1003.7
20260507001605 73 264 12.0 17.0 0.00 0.00 0.00 46 1003.6
20260507000046 74 202 9.0 16.0 0.00 0.00 0.00 47 1003.7
20260506234545 74 239 11.0 17.0 0.00 0.00 0.00 46 1003.6
20260506233047 73 216 9.0 17.0 0.00 0.00 0.00 48 1003.7
20260506231544 74 231 10.0 16.0 0.00 0.00 0.00 46 1003.7
20260506230044 74 235 11.0 16.0 0.00 0.00 0.00 45 1003.7
20260506224543 74 211 13.0 18.0 0.00 0.00 0.00 43 1003.8
20260506223042 75 242 11.0 16.0 0.00 0.00 0.00 43 1004.1
20260506221544 76 238 9.0 17.0 0.00 0.00 0.00 44 1004.1
20260506220035 76 217 10.0 16.0 0.00 0.00 0.00 43 1004.2
20260506214528 76 201 11.0 15.0 0.00 0.00 0.00 44 1004.5
20260506213028 77 234 9.0 16.0 0.00 0.00 0.00 42 1004.7
20260506211526 76 251 9.0 17.0 0.00 0.00 0.00 41 1004.8
20260506210027 77 232 10.0 16.0 0.00 0.00 0.00 41 1004.8
20260506204527 77 247 10.0 16.0 0.00 0.00 0.00 39 1004.7
20260506203024 77 251 10.0 16.0 0.00 0.00 0.00 41 1004.7
20260506201538 77 262 10.0 16.0 0.00 0.00 0.00 44 1004.7
20260506200009 76 231 7.0 14.0 0.00 0.00 0.00 46 1004.8
20260506194506 75 189 11.0 17.0 0.00 0.00 0.00 45 1004.9
20260506193005 74 178 10.0 16.0 0.00 0.00 0.00 48 1005.1
20260506191600 74 205 9.0 21.0 0.00 0.00 0.00 50 1005.3
20260506190057 72 255 11.0 19.0 0.00 0.00 0.00 52 1005.5
20260506184556 71 230 11.0 18.0 0.00 0.00 0.00 53 1005.6
20260506183050 70 202 12.0 18.0 0.00 0.00 0.00 53 1005.7
20260506181548 69 180 13.0 18.0 0.00 0.00 0.00 55 1006.0
20260506180031 68 205 12.0 17.0 0.00 0.00 0.00 55 1006.3
20260506174529 68 224 9.0 15.0 0.00 0.00 0.00 60 1006.3
20260506173028 67 257 11.0 18.0 0.00 0.00 0.00 58 1006.4
20260506171532 67 212 9.0 17.0 0.00 0.00 0.00 61 1006.4
20260506170023 66 222 10.0 16.0 0.00 0.00 0.00 62 1006.4
20260506164522 65 209 11.0 15.0 0.00 0.00 0.00 62 1006.3
20260506163030 64 210 8.0 17.0 0.00 0.00 0.00 67 1006.3
20260506161513 63 228 11.0 18.0 0.00 0.00 0.00 67 1006.4
20260506160111 62 222 11.0 18.0 0.00 0.00 0.00 66 1006.5
20260506154602 61 183 14.0 20.0 0.00 0.00 0.00 67 1006.5
20260506153053 60 207 8.0 17.0 0.00 0.00 0.00 70 1006.5
20260506151550 59 198 11.0 15.0 0.00 0.00 0.00 71 1006.6
20260506150048 59 215 9.0 13.0 0.00 0.00 0.00 72 1006.6
20260506144545 58 245 6.0 10.0 0.00 0.00 0.00 74 1006.5